Volver al catálogo

SL-14 DEB

ActivoPO
NORAD 26021·DEBRIS·🇷🇺 Russia

Lanzado Sep 28, 1991 desde Plesetsk Cosmodrome

Loading…

Próximos Pases (próximas 24 horas)

TLE

ActualizadoSource: Space-Track

Época: Sep 13, 2026, 17:41 UTC

1 26021U 91068AG  26256.73730951  .00000676  00000-0  21281-2 0  9996
2 26021  81.7783 339.1261 0221653 239.4626 248.0937 12.95071894638010

Sigue SL-14 DEB en tiempo real con AllMySat

Download on the App Store